Murray, KY

3:07 AM CDT on May 24, 2017 (GMT -0500)
Kyle-Oakley

Weather History for KCEY - January, 2013

Change the Weather History Date:

Friday, January 11, 2013

  Actual Average (KPAH) Record (KPAH)
Temperature  
Mean Temperature 58 °F -  
Max Temperature 64 °F 37 °F 68 °F (1995)
Min Temperature 53 °F 20 °F -11 °F (1977)
Degree Days  
Heating Degree Days 6    
Growing Degree Days 8 (Base 50)    
Moisture  
Dew Point 51 °F    
Average Humidity 78    
Maximum Humidity 100    
Minimum Humidity 56    
Precipitation  
Precipitation 0.52 in - - ()
Sea Level Pressure  
Sea Level Pressure 29.96 in    
Wind  
Wind Speed 12 mph (SSW)    
Max Wind Speed 21 mph    
Max Gust Speed 28 mph    
Visibility 10 miles    
Events      
Averages and records for this station are not official NWS values.
T = Trace of Precipitation, MM = Missing Value Source: NWS Daily Summary

Daily Weather History Graph

Daily Weather History Graph

Search for Another Location

Airport or City:

Trip Planner

Search our weather history database for the weather conditions in past years. The results will help you decide how hot, cold, wet, or windy it might be!

Date:

Astronomy

Jan. 11, 2013 Rise Set
Actual Time 7:05 AM CST 4:57 PM CST
Civil Twilight 6:37 AM CST 5:25 PM CST
Nautical Twilight 6:05 AM CST 5:57 PM CST
Astronomical Twilight 5:34 AM CST 6:29 PM CST
Moon 6:39 AM CST (1/11) 5:13 PM CST (1/11)
Length of Visible Light 10h 48m
Length of Day
9h 51m
Waning Crescent, 0% of the Moon is Illuminated
Jan 11
Waning Crescent
Jan 11
New
Jan 18
First Quarter
Jan 26
Full
Feb 3
Last Quarter

Hourly Weather History & Observations

Time (CST) Temp. Dew Point Humidity Pressure Visibility Wind Dir Wind Speed Gust Speed Precip Events Conditions
12:15 AM 62.6 °F 60.8 °F 94% 29.90 in 1.2 mi SW 12.7 mph 25.3 mph 0.23 in   Overcast
12:35 AM 60.8 °F 59.0 °F 94% 29.92 in 2.5 mi West 20.7 mph 27.6 mph 0.43 in   Overcast
12:55 AM 57.2 °F 57.2 °F 100% 29.92 in 5.0 mi West 20.7 mph 27.6 mph 0.49 in   Mostly Cloudy
1:15 AM 57.2 °F 55.4 °F 94% 29.93 in 2.5 mi WSW 19.6 mph 26.5 mph 0.02 in   Overcast
1:35 AM 57.2 °F 55.4 °F 94% 29.93 in 10.0 mi SW 13.8 mph 20.7 mph 0.02 in   Overcast
1:55 AM 57.2 °F 53.6 °F 88% 29.93 in 8.0 mi SW 11.5 mph 18.4 mph 0.02 in   Overcast
2:15 AM 57.2 °F 53.6 °F 88% 29.93 in 10.0 mi WSW 12.7 mph 17.3 mph N/A   Overcast
2:35 AM 57.2 °F 53.6 °F 88% 29.94 in 10.0 mi SW 9.2 mph - N/A   Overcast
2:55 AM 57.2 °F 53.6 °F 88% 29.94 in 10.0 mi SW 11.5 mph 18.4 mph N/A   Overcast
3:15 AM 57.2 °F 53.6 °F 88% 29.94 in 10.0 mi SW 12.7 mph 18.4 mph N/A   Overcast
3:35 AM 57.2 °F 53.6 °F 88% 29.95 in 9.0 mi SW 11.5 mph 20.7 mph N/A   Overcast
3:55 AM 57.2 °F 53.6 °F 88% 29.95 in 10.0 mi SW 11.5 mph 16.1 mph N/A   Overcast
4:15 AM 57.2 °F 53.6 °F 88% 29.96 in 10.0 mi SW 10.4 mph 19.6 mph N/A   Mostly Cloudy
4:35 AM 57.2 °F 53.6 °F 88% 29.96 in 10.0 mi SW 10.4 mph - N/A   Mostly Cloudy
4:55 AM 55.4 °F 53.6 °F 94% 29.95 in 10.0 mi SW 12.7 mph - N/A   Scattered Clouds
5:15 AM 55.4 °F 53.6 °F 94% 29.96 in 10.0 mi SW 9.2 mph - N/A   Scattered Clouds
5:35 AM 55.4 °F 53.6 °F 94% 29.97 in 10.0 mi SW 8.1 mph - N/A   Mostly Cloudy
5:55 AM 55.4 °F 53.6 °F 94% 29.96 in 10.0 mi SW 9.2 mph - N/A   Partly Cloudy
6:35 AM 55.4 °F 53.6 °F 94% 29.99 in 10.0 mi SSW 9.2 mph - N/A   Clear
6:55 AM 53.6 °F 51.8 °F 94% 29.98 in 10.0 mi SSW 8.1 mph - N/A   Clear
7:15 AM 53.6 °F 51.8 °F 94% 29.99 in 10.0 mi SSW 9.2 mph - N/A   Clear
7:35 AM 55.4 °F 51.8 °F 88% 30.00 in 10.0 mi SSW 10.4 mph 17.3 mph N/A   Clear
7:55 AM 55.4 °F 51.8 °F 88% 30.00 in 10.0 mi SW 9.2 mph - N/A   Clear
8:15 AM 55.4 °F 51.8 °F 88% 30.02 in 10.0 mi SW 8.1 mph - 0.01 in   Clear
8:35 AM 57.2 °F 51.8 °F 82% 30.03 in 10.0 mi SW 8.1 mph 16.1 mph 0.01 in   Clear
9:15 AM 57.2 °F 50.0 °F 77% 30.03 in 10.0 mi SW 12.7 mph 20.7 mph N/A   Partly Cloudy
9:35 AM 57.2 °F 50.0 °F 77% 30.02 in 10.0 mi SW 10.4 mph 18.4 mph N/A   Partly Cloudy
9:55 AM 59.0 °F 51.8 °F 77% 30.03 in 10.0 mi SW 10.4 mph 17.3 mph N/A   Clear
10:15 AM 59.0 °F 50.0 °F 72% 30.03 in 10.0 mi SW 11.5 mph 20.7 mph N/A   Clear
10:55 AM 60.8 °F 50.0 °F 68% 30.00 in 10.0 mi SSW 10.4 mph 18.4 mph N/A   Clear
11:15 AM 60.8 °F 50.0 °F 68% 29.99 in 10.0 mi SSW 10.4 mph 19.6 mph N/A   Partly Cloudy
11:55 AM 62.6 °F 50.0 °F 63% 29.98 in 10.0 mi SSW 12.7 mph 20.7 mph N/A   Clear
12:15 PM 62.6 °F 50.0 °F 63% 29.98 in 10.0 mi SSW 13.8 mph 19.6 mph N/A   Clear
12:35 PM 62.6 °F 48.2 °F 59% 29.97 in 10.0 mi SW 12.7 mph 21.9 mph N/A   Clear
12:55 PM 62.6 °F 48.2 °F 59% 29.97 in 10.0 mi SSW 8.1 mph 18.4 mph N/A   Clear
1:15 PM 64.4 °F 48.2 °F 56% 29.97 in 10.0 mi SSW 16.1 mph 24.2 mph N/A   Clear
1:35 PM 64.4 °F 48.2 °F 56% 29.97 in 10.0 mi SW 13.8 mph 20.7 mph N/A   Clear
1:55 PM 64.4 °F 48.2 °F 56% 29.97 in 10.0 mi SW 11.5 mph - N/A   Clear
2:15 PM 64.4 °F 48.2 °F 56% 29.97 in 10.0 mi SSW 11.5 mph 17.3 mph N/A   Clear
2:35 PM 64.4 °F 48.2 °F 56% 29.97 in 10.0 mi SSW 12.7 mph 19.6 mph N/A   Clear
2:55 PM 64.4 °F 48.2 °F 56% 29.97 in 10.0 mi SSW 12.7 mph 19.6 mph N/A   Clear
3:15 PM 64.4 °F 48.2 °F 56% 29.97 in 10.0 mi SSW 6.9 mph 16.1 mph N/A   Clear
3:35 PM 62.6 °F 48.2 °F 59% 29.97 in 10.0 mi SSW 10.4 mph 18.4 mph N/A   Clear
3:55 PM 62.6 °F 48.2 °F 59% 29.97 in 10.0 mi SSW 8.1 mph - N/A   Clear
4:15 PM 62.6 °F 48.2 °F 59% 29.96 in 10.0 mi SSW 8.1 mph - N/A   Clear
4:35 PM 62.6 °F 48.2 °F 59% 29.95 in 10.0 mi South 6.9 mph - N/A   Clear
4:55 PM 59.0 °F 48.2 °F 67% 29.96 in 10.0 mi SSW 6.9 mph - N/A   Clear
5:15 PM 59.0 °F 48.2 °F 67% 29.96 in 10.0 mi South 5.8 mph - N/A   Clear
5:35 PM 59.0 °F 48.2 °F 67% 29.95 in 10.0 mi South 5.8 mph - N/A   Clear
5:55 PM 57.2 °F 46.4 °F 67% 29.95 in 10.0 mi South 6.9 mph - N/A   Clear
6:15 PM 57.2 °F 46.4 °F 67% 29.95 in 10.0 mi South 5.8 mph - N/A   Clear
6:35 PM 57.2 °F 46.4 °F 67% 29.95 in 10.0 mi South 5.8 mph - N/A   Clear
6:55 PM 57.2 °F 46.4 °F 67% 29.95 in 10.0 mi South 5.8 mph - N/A   Clear
7:15 PM 57.2 °F 48.2 °F 72% 29.96 in 10.0 mi South 5.8 mph - N/A   Clear
7:35 PM 57.2 °F 48.2 °F 72% 29.96 in 10.0 mi South 6.9 mph - N/A   Clear
7:55 PM 57.2 °F 48.2 °F 72% 29.96 in 10.0 mi South 6.9 mph - N/A   Clear
8:15 PM 57.2 °F 48.2 °F 72% 29.96 in 10.0 mi South 8.1 mph - N/A   Clear
8:35 PM 57.2 °F 48.2 °F 72% 29.96 in 10.0 mi South 8.1 mph - N/A   Clear
8:55 PM 57.2 °F 50.0 °F 77% 29.95 in 10.0 mi South 9.2 mph - N/A   Clear
9:15 PM 57.2 °F 51.8 °F 82% 29.96 in 10.0 mi South 9.2 mph - N/A   Clear
9:35 PM 57.2 °F 53.6 °F 88% 29.96 in 10.0 mi South 10.4 mph - N/A   Clear
9:55 PM 57.2 °F 53.6 °F 88% 29.96 in 10.0 mi South 6.9 mph - N/A   Clear
10:15 PM 57.2 °F 53.6 °F 88% 29.96 in 10.0 mi South 8.1 mph - N/A   Clear
10:35 PM 57.2 °F 53.6 °F 88% 29.95 in 10.0 mi South 9.2 mph - N/A   Clear
10:55 PM 57.2 °F 55.4 °F 94% 29.95 in 10.0 mi South 11.5 mph 16.1 mph N/A   Clear
11:15 PM 57.2 °F 55.4 °F 94% 29.95 in 10.0 mi South 11.5 mph 18.4 mph N/A   Clear
11:35 PM 57.2 °F 55.4 °F 94% 29.95 in 10.0 mi SSW 9.2 mph 18.4 mph N/A   Clear
11:55 PM 57.2 °F 55.4 °F 94% 29.95 in 10.0 mi South 10.4 mph 18.4 mph N/A   Clear